GW2364 Weather Reports


time (UTC)temp
C
wind
direction
speed
KPH
gust
KPH
rain 1hr
cm
rain 24hr
cm
rain mn
cm
humidity
%
barometer
mb
20240418173001 27 223 3.2 24.1 0.00 0.00 0.00 74 1011.8
20240418171502 28 332 1.6 14.5 0.00 0.00 0.00 73 1011.9
20240418170003 27 180 3.2 11.3 0.00 0.00 0.00 74 1011.9
20240418164501 27 81 3.2 16.1 0.00 0.00 0.00 75 1011.8
20240418163002 27 219 6.4 16.1 0.00 0.00 0.00 76 1011.7
20240418161501 27 223 6.4 19.3 0.00 0.00 0.00 77 1011.9
20240418160003 26 196 4.8 17.7 0.00 0.00 0.00 81 1011.8
20240418154501 25 251 4.8 16.1 0.00 0.00 0.00 83 1011.9
20240418153002 25 190 6.4 17.7 0.00 0.00 0.00 84 1012.0
20240418151501 25 192 6.4 14.5 0.00 0.00 0.00 85 1012.0
20240418150009 24 229 4.8 14.5 0.00 0.00 0.00 86 1011.9
20240418144501 23 223 4.8 16.1 0.00 0.00 0.00 88 1012.0
20240418143002 23 224 3.2 11.3 0.00 0.00 0.00 90 1011.9
20240418141501 22 223 1.6 8.0 0.00 0.00 0.00 91 1011.9
20240418140003 22 203 3.2 9.7 0.00 0.00 0.00 92 1011.9
20240418134501 22 216 1.6 8.0 0.00 0.00 0.00 92 1012.0
20240418133002 22 194 1.6 6.4 0.00 0.00 0.00 92 1011.8
20240418131504 22 229 1.6 6.4 0.00 0.00 0.00 92 1011.9
20240418130004 22 51 0.0 3.2 0.00 0.00 0.00 93 1011.6
20240418124502 22 171 0.0 4.8 0.00 0.00 0.00 93 1011.4
20240418123001 21 265 3.2 6.4 0.00 0.00 0.00 93 1011.3
20240418121501 21 196 1.6 6.4 0.00 0.00 0.00 93 1011.2
20240418120003 21 109 0.0 4.8 0.00 0.00 0.00 93 1011.0
20240418114503 21 171 3.2 8.0 0.00 0.00 0.00 93 1010.9
20240418113001 21 196 0.0 4.8 0.00 0.00 0.00 93 1010.8
20240418111500 21 59 0.0 6.4 0.00 0.00 0.00 93 1010.6
20240418110011 21 115 0.0 4.8 0.00 0.00 0.00 93 1010.5
20240418104502 21 80 1.6 9.7 0.00 0.00 0.00 93 1010.3
20240418103002 21 213 0.0 8.0 0.00 0.00 0.00 92 1010.4
20240418101602 21 192 1.6 6.4 0.00 0.00 0.00 92 1010.7
20240418100115 21 101 1.6 8.0 0.00 0.00 0.00 92 1010.4
20240418100003 21 22 1.6 8.0 0.00 0.00 0.00 92 1010.4
20240418094606 21 80 1.6 4.8 0.00 0.00 0.00 92 1010.5
20240418094503 21 80 1.6 4.8 0.00 0.00 0.00 92 1010.6
20240418093107 21 119 0.0 3.2 0.00 0.00 0.00 92 1010.7
20240418091617 21 215 0.0 4.8 0.00 0.00 0.00 92 1010.9
20240418091500 21 215 1.6 4.8 0.00 0.00 0.00 92 1010.8
20240418090104 21 214 1.6 4.8 0.00 0.00 0.00 92 1010.7
20240418090004 21 175 1.6 4.8 0.00 0.00 0.00 92 1010.8
20240418084500 21 215 1.6 4.8 0.00 0.00 0.00 91 1011.0
20240418083001 21 205 0.0 6.4 0.00 0.00 0.00 91 1010.8
20240418081601 21 224 3.2 6.4 0.00 0.00 0.00 91 1011.1
20240418081503 21 224 3.2 6.4 0.00 0.00 0.00 91 1011.0
20240418080003 21 230 1.6 8.0 0.00 0.00 0.00 91 1011.4
20240418074601 21 204 1.6 9.7 0.00 0.00 0.00 91 1011.3
20240418073000 21 238 3.2 8.0 0.00 0.00 0.00 91 1011.4
20240418071600 21 214 4.8 11.3 0.00 0.00 0.00 91 1011.3
20240418071500 21 211 4.8 11.3 0.00 0.00 0.00 91 1011.3
20240418070103 21 215 3.2 9.7 0.00 0.00 0.00 91 1011.4
20240418070006 21 227 3.2 9.7 0.00 0.00 0.00 91 1011.4
20240418064607 21 240 1.6 9.7 0.00 0.00 0.00 90 1011.4
20240418063109 21 197 3.2 9.7 0.00 0.00 0.00 90 1011.4
20240418061600 21 180 1.6 11.3 0.00 0.00 0.00 89 1011.6
20240418060105 21 216 1.6 11.3 0.00 0.00 0.00 89 1011.4
20240418060004 21 254 3.2 11.3 0.00 0.00 0.00 89 1011.4
20240418054506 22 178 4.8 8.0 0.00 0.00 0.00 88 1011.7
20240418053008 22 299 1.6 12.9 0.00 0.00 0.00 88 1011.1
20240418051503 22 65 3.2 6.4 0.00 0.00 0.00 87 1011.1
20240418050013 22 48 1.6 6.4 0.00 0.00 0.00 87 1011.1
20240418044503 22 65 3.2 9.7 0.00 0.00 0.00 86 1011.2
20240418043003 22 128 1.6 12.9 0.00 0.00 0.00 86 1011.3
20240418041503 22 90 1.6 12.9 0.00 0.00 0.00 86 1011.2
20240418040006 22 62 4.8 12.9 0.00 0.00 0.00 86 1011.4
20240418034503 22 59 3.2 9.7 0.00 0.00 0.00 85 1011.0
20240418033004 22 202 1.6 12.9 0.00 0.00 0.00 85 1011.3
20240418031509 23 78 3.2 8.0 0.00 0.00 0.00 85 1011.0
20240418030005 23 53 3.2 12.9 0.00 0.00 0.00 85 1010.9
20240418024502 23 51 3.2 12.9 0.00 0.00 0.00 84 1011.1
20240418023005 23 45 4.8 14.5 0.00 0.00 0.00 84 1010.9
20240418021503 23 103 3.2 14.5 0.00 0.00 0.00 84 1010.7
20240418020005 23 44 3.2 11.3 0.00 0.00 0.00 83 1010.9
20240418014503 23 74 3.2 12.9 0.00 0.00 0.00 83 1010.9
20240418013002 23 52 4.8 11.3 0.00 0.00 0.00 83 1011.0
20240418011508 24 86 4.8 12.9 0.00 0.00 0.00 82 1010.9
20240418010005 24 79 1.6 8.0 0.00 0.00 0.00 83 1010.9
20240418004502 24 89 1.6 8.0 0.00 0.00 0.00 83 1010.9
20240418003003 24 104 1.6 6.4 0.00 0.00 0.00 82 1010.7
20240418001502 25 28 1.6 6.4 0.00 0.00 0.00 81 1010.6
20240418000005 25 23 3.2 16.1 0.00 0.00 0.00 80 1010.6
20240417234502 25 86 1.6 12.9 0.00 0.00 0.00 79 1010.3
20240417233003 26 87 1.6 14.5 0.00 0.00 0.00 79 1010.2
20240417231502 26 63 3.2 14.5 0.00 0.00 0.00 78 1010.0
20240417230005 26 334 4.8 14.5 0.00 0.00 0.00 77 1010.0
20240417224502 26 70 3.2 12.9 0.00 0.00 0.00 78 1010.1
20240417223004 25 88 1.6 11.3 0.00 0.00 0.00 80 1010.2
20240417221503 25 56 1.6 9.7 0.00 0.00 0.00 80 1010.1
20240417220003 25 27 1.6 6.4 0.00 0.00 0.00 83 1010.3
20240417214501 25 152 0.0 4.8 0.00 0.00 0.00 83 1010.3
20240417213004 25 97 0.0 3.2 0.00 0.00 0.00 83 1010.3
20240417211501 25 36 3.2 4.8 0.00 0.00 0.00 83 1010.2
20240417210005 25 83 3.2 4.8 0.00 0.00 0.00 82 1010.8
20240417204500 26 38 1.6 6.4 0.00 0.00 0.00 81 1011.0
20240417203002 26 217 1.6 11.3 0.00 0.00 0.00 81 1011.2
20240417201502 26 57 3.2 11.3 0.00 0.00 0.00 80 1010.9
20240417200006 25 40 3.2 11.3 0.00 0.00 0.00 82 1011.1
20240417194501 25 121 4.8 16.1 0.00 0.00 0.00 83 1011.2
20240417193005 25 111 4.8 16.1 0.00 0.00 0.00 82 1011.4
20240417191502 26 105 4.8 16.1 0.00 0.00 0.00 82 1011.4
20240417190005 26 9 3.2 17.7 0.00 0.00 0.00 81 1011.8
20240417184504 27 80 3.2 16.1 0.00 0.15 0.00 78 1012.0
20240417183002 27 24 6.4 16.1 0.00 0.15 0.00 76 1011.7
20240417181502 27 13 3.2 11.3 0.00 0.15 0.00 77 1012.0
20240417180003 27 54 3.2 14.5 0.00 0.15 0.00 78 1012.1
20240417174502 27 24 4.8 9.7 0.00 0.15 0.00 80 1012.5